Location: Vancouver
(49.2500°N, 123.1330°W)
Time: 22:42:35
(UTC-08:00)

Iridium 35 - Visible Passes

Search period start: 18 January 2017 00:00
Search period end: 28 January 2017 00:00
Orbit: 776 x 779 km, 86.4° (Epoch: 18 January)

Date Brightness Start Highest point End Pass type
(mag) Time Alt. Az. Time Alt. Az. Time Alt. Az.
18 Jan 7.3 04:05:18 10° NNE 04:09:17 21° ENE 04:13:14 10° ESE visible
18 Jan 5.0 05:45:18 10° N 05:50:26 59° W 05:55:33 10° SSW visible
18 Jan 6.7 18:47:05 10° SW 18:51:47 33° WNW 18:56:31 10° NNW visible
19 Jan 7.9 03:32:56 10° NE 03:35:18 13° ENE 03:37:41 10° E visible
19 Jan 5.0 05:11:41 10° N 05:16:57 82° E 05:22:10 10° S visible
19 Jan 6.5 06:53:58 10° NW 06:56:57 16° WNW 06:59:55 10° WSW visible
19 Jan 5.7 18:12:58 10° SSW 18:18:05 56° W 18:23:15 10° N visible
20 Jan 5.9 04:38:16 10° N 04:43:20 48° E 04:48:22 10° SSE visible
20 Jan 5.9 06:19:31 10° NNW 06:23:46 26° W 06:28:00 10° SW visible
20 Jan 5.0 17:39:18 10° S 17:44:30 86° E 17:49:46 10° N visible
20 Jan 7.9 19:22:59 10° WSW 19:25:59 15° WNW 19:29:01 10° NNW visible
21 Jan 6.8 04:08:55 28° ENE 04:09:35 29° ENE 04:14:05 10° SE visible
21 Jan 5.3 05:49:34 39° WNW 05:50:29 43° W 05:55:22 10° SSW visible
21 Jan 7.3 18:47:49 10° SW 18:52:04 25° WNW 18:56:22 10° NNW visible
22 Jan 7.7 03:37:50 14° E 03:37:50 14° E 03:39:11 10° ESE visible
22 Jan 5.4 05:18:27 49° SSW 05:18:27 49° SSW 05:22:15 10° S visible
22 Jan7.106:59:03W06:59:03W06:51:24NNWvisible
22 Jan 6.4 18:13:23 10° SSW 18:18:18 41° W 18:23:15 10° N visible
23 Jan8.403:06:16ESE03:06:16ESE02:56:38NNEvisible
23 Jan 6.8 04:46:51 22° SSE 04:46:51 22° SSE 04:48:42 10° SSE visible
23 Jan7.106:27:27WSW06:27:27WSW06:17:32NNWvisible
23 Jan 5.4 17:39:26 10° SSW 17:44:38 70° W 17:49:52 10° N visible
23 Jan 8.1 19:24:58 10° W 19:26:25 11° WNW 19:27:51 10° NW visible
24 Jan7.804:15:02SSE04:15:02SSE04:03:22Nvisible
24 Jan7.405:55:37SW05:55:37SW05:43:48NNWvisible
24 Jan 7.7 18:48:48 10° WSW 18:52:25 19° WNW 18:56:02 10° NNW visible
25 Jan7.905:23:39SSW05:23:39SSW05:10:10Nvisible
25 Jan 7.0 18:13:59 10° SW 18:18:33 30° WNW 18:23:08 10° NNW visible
26 Jan 6.0 17:39:45 10° SSW 17:44:49 50° W 17:49:55 10° N visible
27 Jan 7.9 18:50:12 10° W 18:52:48 14° WNW 18:55:25 10° NW visible
